Location: Gro� Glienicke
(52.4675°N, 13.1079°E)
Time: 19:09:21
(UTC+00:00)

Cosmos 2322 - Pass Details

Date: 06 July 2020
Orbit: 841 x 854 km, 71.0° (Epoch: 11 August)

Event Time Altitude Azimuth Distance (km) Brightness Sun altitude
Rises 20:05:43 0° 191° (S) 3,411 6.5 -4.7°
Reaches altitude 10° 20:08:13 10° 186° (S) 2,480 5.8 -4.9°
Maximum altitude 20:13:42 51° 112° (ESE) 1,071 4.0 -5.5°
Drops below altitude 10° 20:19:13 10° 38° (NE) 2,494 6.3 -6.0°
Sets 20:21:44 0° 34° (NE) 3,433 7.1 -6.3°
